{"data":{"norad_id":65546,"epoch":"2026-09-20T14:33:05.852736Z","epoch_age_seconds":143307,"freshness":"FRESH","line1":"1 65546U 25199C   26263.60631774  .00000102  00000+0  45198-4 0  9998","line2":"2 65546  85.9968   1.2707 0002114 108.0207 252.1206 14.12463604 53508","mean_motion":14.12463604,"eccentricity":0.0002114,"inclination_deg":85.9968,"raan_deg":1.2707,"arg_perigee_deg":108.0207,"mean_anomaly_deg":252.1206,"bstar":4.5198e-5,"rev_number":5350,"period_min":101.94952959652,"perigee_km":849.42531082876,"apogee_km":852.48177030932,"semimajor_km":7229.090540569,"source":"CELESTRAK","updated_at":"2026-09-21T09:00:15.423672Z"}}